Terminal Aerodrome Forecast
Issued by NWS

Home | Current Version | Previous Version | Text Only | Print | Product List | Glossary On
Versions: 1 2 3 4 5 6 7 8 9 10 11 12 13 14 15 16 17 18 19 20 21 22 23 24 25 26 27 28 29 30 31 32 33 34 35
000
FTUS41 KBOX 181120
TAFBAF
TAF
KBAF 181120Z 1812/1912 29011KT P6SM SCT025 OVC060
     FM181700 31012G23KT P6SM BKN025
     FM182300 30008KT P6SM SCT025
     FM190500 31006KT P6SM BKN025
     FM191000 32006KT P6SM SCT025=

USA.gov is the U.S. government's official web portal to all federal, state and local government web resources and services.